logo tempoitalia

Diretta Meteo Clinton, Stati Uniti (USA)lunedì 31 agosto ore 01:35

Mappa
Sereno 26 °C Sereno 24 Ore: T.min 25 T.max 39
Ponente Sud/Sud-Est Km/h 14.8 Punto di rugiada: 11 °C Umidità: 39% Visibilità: 10 Km
Il sole sorge alle: 07:07 Il sole tramonta alle: 20:04
31 Agosto 2026 01:35 tempo osservato: Sereno Sereno 26 39 1015 vento: Nord S/SE 14.8
31 Agosto 2026 01:15 tempo osservato: Sereno Sereno 27 34 1014 vento: Nord S/SE 14.8
31 Agosto 2026 00:55 tempo osservato: Sereno Sereno 27 34 1014 vento: Nord S/SE 16.7
31 Agosto 2026 00:35 tempo osservato: Sereno Sereno 28 34 1014 vento: Nord S/SE 18.5
31 Agosto 2026 00:15 tempo osservato: Sereno Sereno 29 30 1014 vento: Nord S 20.3
30 Agosto 2026 23:55 tempo osservato: Sereno Sereno 29 32 1014 vento: Nord S 18.5
30 Agosto 2026 23:35 tempo osservato: Sereno Sereno 29 32 1014 vento: Nord S/SE 20.3
30 Agosto 2026 23:15 tempo osservato: Sereno Sereno 29 32 1014 vento: Nord S/SE 18.5
30 Agosto 2026 22:55 tempo osservato: Sereno Sereno 29 32 1014 vento: Nord S/SE 14.8
30 Agosto 2026 22:35 tempo osservato: Sereno Sereno 30 30 1014 vento: Nord S/SE 11.1
30 Agosto 2026 22:15 tempo osservato: Sereno Sereno 30 30 1013 vento: Nord S/SE 14.8
30 Agosto 2026 21:55 tempo osservato: Sereno Sereno 31 29 1013 vento: Nord S/SE 14.8
30 Agosto 2026 21:35 tempo osservato: Sereno Sereno 31 29 1013 vento: Nord S/SE 14.8
30 Agosto 2026 21:15 tempo osservato: Sereno Sereno 32 27 1012 vento: Nord S 16.7
30 Agosto 2026 20:55 tempo osservato: Sereno Sereno 33 26 1012 vento: Nord S 18.5
30 Agosto 2026 20:35 tempo osservato: Sereno Sereno 34 24 1012 vento: Nord S 18.5
30 Agosto 2026 20:15 tempo osservato: Sereno Sereno 35 23 1012 vento: Nord S 18.5
30 Agosto 2026 19:55 tempo osservato: Sereno Sereno 36 22 1012 vento: Nord S 22.2
30 Agosto 2026 19:35 tempo osservato: Sereno Sereno 36 20 1012 vento: Nord S 18.5
30 Agosto 2026 19:15 tempo osservato: Sereno Sereno 37 19 1012 vento: Nord S 22.2
30 Agosto 2026 18:55 tempo osservato: Sereno Sereno 37 19 1012 vento: Nord S 25.9
30 Agosto 2026 18:35 tempo osservato: Sereno Sereno 37 19 1012 vento: Nord S 29.6
30 Agosto 2026 18:15 tempo osservato: Sereno Sereno 38 19 1012 vento: Nord S 27.8
30 Agosto 2026 17:55 tempo osservato: Sereno Sereno 38 19 1011 vento: Nord S 24
30 Agosto 2026 17:35 tempo osservato: Sereno Sereno 38 19 1011 vento: Nord S 29.6
30 Agosto 2026 17:15 tempo osservato: Sereno Sereno 39 20 1012 vento: Nord S/SO 22.2
30 Agosto 2026 16:55 tempo osservato: Sereno Sereno 39 18 1012 vento: Nord S/SO 25.9
30 Agosto 2026 16:35 tempo osservato: Sereno Sereno 39 20 1012 vento: Nord S 22.2
30 Agosto 2026 16:15 tempo osservato: Sereno Sereno 39 20 1012 vento: Nord S 31.5
30 Agosto 2026 15:55 tempo osservato: Sereno Sereno 38 21 1012 vento: Nord S/SO 24
30 Agosto 2026 15:35 tempo osservato: Sereno Sereno 39 20 1013 vento: Nord S/SO 24
30 Agosto 2026 15:15 tempo osservato: Sereno Sereno 38 22 1013 vento: Nord S 24
30 Agosto 2026 14:55 tempo osservato: Sereno Sereno 38 21 1013 vento: Nord S/SO 24
30 Agosto 2026 14:35 tempo osservato: Nuvoloso Nuvoloso 38 22 1014 vento: Nord S 27.8
30 Agosto 2026 14:15 tempo osservato: Sereno Sereno 37 23 1014 vento: Nord S/SO 29.6
30 Agosto 2026 13:55 tempo osservato: Sereno Sereno 38 22 1014 vento: Nord S/SO 31.5
30 Agosto 2026 13:35 tempo osservato: Sereno Sereno 37 23 1014 vento: Nord S/SO 29.6
30 Agosto 2026 13:15 tempo osservato: Sereno Sereno 37 23 1014 vento: Nord S/SO 27.8
30 Agosto 2026 12:55 tempo osservato: Sereno Sereno 37 23 1015 vento: Nord S/SO 24
30 Agosto 2026 12:35 tempo osservato: Sereno Sereno 36 26 1015 vento: Nord S/SO 25.9
30 Agosto 2026 12:15 tempo osservato: Sereno Sereno 36 26 1015 vento: Nord SO 27.8
30 Agosto 2026 11:55 tempo osservato: Sereno Sereno 35 28 1015 vento: Nord S/SO 29.6
30 Agosto 2026 11:35 tempo osservato: Sereno Sereno 35 28 1016 vento: Nord SO 31.5
30 Agosto 2026 11:15 tempo osservato: Sereno Sereno 34 30 1016 vento: Nord S/SO 37
30 Agosto 2026 10:55 tempo osservato: Sereno Sereno 34 30 1015 vento: Nord S/SO 35.2
30 Agosto 2026 10:35 tempo osservato: Sereno Sereno 33 31 1016 vento: Nord S/SO 27.8
30 Agosto 2026 10:15 tempo osservato: Sereno Sereno 32 33 1016 vento: Nord S/SO 31.5
30 Agosto 2026 09:55 tempo osservato: Sereno Sereno 31 37 1016 vento: Nord S/SO 25.9
30 Agosto 2026 09:35 tempo osservato: Sereno Sereno 31 37 1016 vento: Nord S/SO 24
30 Agosto 2026 09:15 tempo osservato: Sereno Sereno 30 40 1016 vento: Nord S/SO 24
30 Agosto 2026 08:55 tempo osservato: Sereno Sereno 28 45 1016 vento: Nord S 24
30 Agosto 2026 08:35 tempo osservato: Sereno Sereno 27 47 1016 vento: Nord S 18.5
30 Agosto 2026 08:15 tempo osservato: Sereno Sereno 26 50 1016 vento: Nord S 16.7
30 Agosto 2026 07:55 tempo osservato: Sereno Sereno 25 50 1015 vento: Nord S/SE 16.7
30 Agosto 2026 07:35 tempo osservato: Sereno Sereno 25 50 1015 vento: Nord S/SE 18.5
30 Agosto 2026 07:15 tempo osservato: Sereno Sereno 25 50 1015 vento: Nord S/SE 18.5
30 Agosto 2026 06:55 tempo osservato: Sereno Sereno 25 50 1015 vento: Nord S/SE 14.8
30 Agosto 2026 06:35 tempo osservato: Sereno Sereno 25 50 1015 vento: Nord S/SE 16.7
30 Agosto 2026 06:15 tempo osservato: Sereno Sereno 25 47 1015 vento: Nord S/SE 14.8
30 Agosto 2026 05:55 tempo osservato: Sereno Sereno 26 44 1015 vento: Nord S 16.7
30 Agosto 2026 05:35 tempo osservato: Sereno Sereno 26 44 1015 vento: Nord S 14.8
30 Agosto 2026 05:15 tempo osservato: Sereno Sereno 26 44 1015 vento: Nord S 14.8
30 Agosto 2026 04:55 tempo osservato: Sereno Sereno 26 44 1015 vento: Nord S 14.8
30 Agosto 2026 04:35 tempo osservato: Sereno Sereno 26 44 1015 vento: Nord S 14.8
30 Agosto 2026 04:15 tempo osservato: Sereno Sereno 27 39 1014 vento: Nord S 16.7
30 Agosto 2026 03:55 tempo osservato: Sereno Sereno 27 39 1014 vento: Nord S 16.7
30 Agosto 2026 03:35 tempo osservato: Sereno Sereno 27 39 1014 vento: Nord S 14.8
30 Agosto 2026 03:15 tempo osservato: Sereno Sereno 26 41 1014 vento: Nord S 14.8
30 Agosto 2026 02:55 tempo osservato: Sereno Sereno 26 41 1014 vento: Nord S 14.8
30 Agosto 2026 02:35 tempo osservato: Sereno Sereno 26 41 1015 vento: Nord S 13
30 Agosto 2026 02:15 tempo osservato: Sereno Sereno 26 41 1015 vento: Nord S 13
30 Agosto 2026 01:55 tempo osservato: Sereno Sereno 27 39 1015 vento: Nord S/SE 16.7
30 Agosto 2026 01:35 tempo osservato: Sereno Sereno 27 36 1015 vento: Nord S/SE 16.7